Snowfall_Accumulation
0.0 0.0 0.0 0.0 0.0 0.0 0.0 0.0 0.0 0.0 0.0 0.0 0.0 0.0 0.0 0.0 0.0 0.0 0.0 0.0 0.0 0.0 0.0 0.0 0.0 0.0 0.0 0.0 0.0 0.0 0.0 0.0 0.0 0.0 0.0 0.0 0.0 0.0
0.0 0.0 0.0 0.0 0.0 0.0 0.0 0.0 0.0 0.0 0.0 0.0 0.0 0.0 0.0 0.0 0.0 0.0 0.0 0.0 0.0 0.0 0.0 0.0 0.0 0.0 0.0 0.0 0.0 0.0 0.0 0.0 0.0 0.0 0.0 0.0 0.0 0.0
0.0 0.0 0.0 0.0 0.0 0.0 0.0 0.0 0.0 0.0 0.0 0.0 0.0 0.0 0.0 0.0 0.0 0.0 0.0 0.0 0.0 0.0 0.0 0.0 0.0 0.0 0.0 0.0 0.0 0.0 0.0 0.0 0.0 0.0 0.0 0.0 0.0 0.0
0.0 0.0 0.0 0.0 0.0 0.0 0.0 0.0 0.0 0.0 0.0 0.1 0.0 0.0 0.0 0.0 0.0 0.0 0.0 0.0 0.0 0.0 0.0 0.0 0.0 0.0 0.0 0.0 0.0 0.0 0.0 0.0 0.0 0.0 0.0 0.0 0.0 0.0
0.0 0.0 0.0 0.0 0.0 0.0 0.0 0.0 0.0 0.0 0.0 0.0 0.0 0.0 0.0 0.0 0.0 0.0 0.0 0.0 0.0 0.0 0.0 0.0 0.0 0.0 0.0 0.0 0.0 0.0 0.0 0.0 0.0 0.0 0.0 0.0 0.0 0.0
0.0 0.0 0.0 0.0 0.0 0.0 0.0 0.0 0.0 0.0 0.0 0.0 0.0 0.0 0.0 0.0 0.0 0.0 0.0 0.0 0.0 0.0 0.0 0.0 0.0 0.0 0.0 0.0 0.0 0.0 0.0 0.0 0.0 0.0 0.0 0.0 0.0 0.0
0.0 0.0 0.0 0.0 0.0 0.0 0.0 0.0 0.0 0.0 0.0 0.0 0.0 0.0 0.0 0.0 0.0 0.0 0.0 0.0 0.0 0.0 0.0 0.0 0.0 0.0 0.0 0.0 0.0 0.0 0.0 0.0 0.0 0.0 0.0 0.0 0.0 0.0
0.0 0.0 0.0 0.0 0.0 0.0 0.0 0.0 0.0 0.0 0.0 0.1 0.1 0.0 0.0 0.0 0.0 0.0 0.1 0.1 0.1 0.0 0.0 0.0 0.0 0.0 0.0 0.0 0.0 0.0 0.0 0.0 0.0 0.0 0.0 0.0 0.0 0.0
0.0 0.0 0.0 0.0 0.0 0.0 0.0 0.0 0.0 0.0 0.0 0.1 0.1 0.1 0.1 0.0 0.1 0.2 0.2 0.2 0.1 0.0 0.0 0.0 0.0 0.0 0.0 0.0 0.0 0.0 0.0 0.0 0.0 0.0 0.0 0.0 0.0 0.0
0.0 0.0 0.0 0.0 0.0 0.0 0.0 0.0 0.0 0.0 0.0 0.0 0.0 0.1 0.0 0.0 0.0 0.1 0.2 0.2 0.1 0.0 0.0 0.3 0.0 0.0 0.0 0.0 0.0 0.0 0.0 0.0 0.0 0.0 0.0 0.0 0.0 0.0
0.0 0.0 0.0 0.0 0.0 0.0 0.0 0.0 0.0 0.0 0.0 0.0 0.0 0.0 0.0 0.0 0.1 0.8 1.1 1.2 1.0 0.1 0.0 0.1 0.0 0.0 0.0 0.0 0.0 0.0 0.0 0.0 0.0 0.0 0.0 0.0 0.0 0.0
0.0 0.0 0.0 0.0 0.2 0.1 0.4 0.5 1.0 0.2 0.0 0.0 0.0 0.0 0.0 0.0 0.0 0.1 0.2 1.4 0.6 0.6 0.0 0.0 0.0 0.0 0.1 0.0 0.0 0.0 0.0 0.0 0.0 0.0 0.0 0.0 0.0 0.0
0.0 0.0 0.0 0.0 0.0 0.0 0.4 0.2 0.1 0.1 0.8 0.1 0.0 0.0 0.1 0.0 0.0 0.0 0.1 0.5 1.2 0.7 0.0 0.0 0.1 0.0 0.1 0.2 0.0 0.0 0.0 0.0 0.0 0.0 0.0 0.0 0.0 0.0
0.2 0.1 0.1 0.1 0.3 0.2 0.0 0.0 0.2 0.8 1.2 0.7 0.8 0.5 0.5 0.3 0.0 0.0 0.2 0.2 0.5 0.9 0.0 0.1 1.2 0.6 0.3 0.6 0.2 0.0 0.0 0.0 0.0 0.0 0.0 0.0 0.0 0.0
0.1 0.2 0.4 0.1 0.1 0.0 0.0 0.0 0.4 2.2 4.2 4.9 2.9 1.9 0.7 0.4 0.2 0.9 0.3 0.1 0.4 0.4 0.3 0.4 1.6 0.9 0.8 1.2 0.5 0.1 0.1 0.0 0.0 0.0 0.0 0.0 0.0 0.0
0.3 0.2 0.1 0.1 0.1 0.2 0.0 0.5 0.8 2.3 4.5 4.1 3.9 4.0 4.2 1.7 2.2 1.1 3.0 2.0 3.3 2.1 0.6 0.3 0.7 1.6 2.5 1.2 0.6 0.4 0.0 0.4 0.0 0.0 0.0 0.0 0.0 0.0
0.1 0.1 0.3 0.3 0.6 0.5 0.2 0.4 0.5 1.6 2.7 3.0 3.5 3.4 6.5 6.9 5.5 5.3 5.6 5.2 5.5 4.2 2.9 1.3 0.3 0.3 0.5 0.5 2.0 0.9 0.3 0.4 0.0 0.0 0.0 0.0 0.0 0.0
0.1 0.4 0.4 1.1 1.1 0.6 1.1 0.7 0.5 0.4 1.9 2.1 3.1 2.7 4.1 4.3 3.2 4.1 6.0 7.1 7.8 6.6 4.7 3.7 4.1 4.3 4.1 1.7 0.0 0.9 0.7 0.7 0.1 0.0 0.0 0.0 0.0 0.0
0.1 0.4 0.5 1.2 1.3 0.8 0.5 0.5 0.7 0.6 0.4 0.7 0.8 2.0 2.0 2.3 1.8 2.1 2.4 4.1 6.6 7.7 6.6 6.1 6.2 5.6 5.0 5.2 3.5 0.0 1.2 0.7 1.3 0.7 0.0 0.0 0.0 0.0
0.2 0.7 1.0 0.8 0.6 0.7 0.6 0.6 0.6 0.4 0.7 0.3 0.3 0.3 0.6 0.3 0.4 0.3 0.7 1.4 2.4 3.5 4.3 4.2 5.9 7.6 5.6 2.3 4.0 3.7 0.0 0.4 1.4 0.9 1.3 0.0 0.0 0.0
0.7 0.8 0.6 0.6 0.6 0.5 0.6 0.7 0.9 0.8 0.6 0.6 0.7 0.6 0.4 0.4 0.2 0.2 0.2 0.2 0.1 0.2 0.5 1.2 3.6 5.3 3.8 1.6 2.9 3.9 3.2 1.2 0.0 0.9 0.9 0.6 3.2 1.3
0.6 0.8 0.7 0.7 0.8 1.0 1.0 0.9 0.7 0.6 1.0 0.7 0.5 0.4 0.4 0.3 0.4 0.5 0.3 0.3 0.2 0.1 0.1 0.0 0.1 1.5 2.5 3.6 4.1 4.4 5.6 4.4 3.6 2.4 0.3 0.0 0.4 0.6
0.8 0.8 0.9 0.7 0.7 0.7 0.9 1.1 1.1 1.1 0.7 0.7 0.6 0.6 0.6 0.7 0.5 0.4 0.3 0.2 0.2 0.1 0.0 0.0 0.0 0.4 1.6 2.9 2.9 3.5 4.1 2.5 3.7 3.7 4.3 0.2 0.0 0.0